Zurück zum Katalog

NAVIGATOR

AktivSSO
NORAD 69887·PAYLOAD·🇺🇸 United States

Gestartet Jul 7, 2026 von Vandenberg Space Force Base

Loading…

Nächste Überflüge (nächste 24 Stunden)

TLE

AktuellSource: Space-Track

Epoche: Sep 14, 2026, 03:50 UTC

1 69887U 26156U   26257.15975500  .00000465  00000-0  51623-4 0  9998
2 69887  97.7487 156.4776 0005585 288.8593  71.2020 14.91824770 10268

Verfolge NAVIGATOR in Echtzeit mit AllMySat

Download on the App Store